Regional Weather Roundup
Issued by NWS

Home | Current Version | Previous Version | Graphics & Text | Print | Product List | Glossary On
Versions: 1 2 3 4 5 6 7 8 9 10 11 12 13 14 15 16 17 18 19 20 21 22 23 24 25 26 27 28 29 30 31 32 33 34 35 36 37 38 39 40 41 42 43 44 45 46 47 48 49 50
000
ASUS45 KBOU 260307
RWRCO

WEATHER ROUNDUP FOR COLORADO
NATIONAL WEATHER SERVICE DENVER/BOULDER CO
800 PM MST TUE NOV 25 2014

NOTE: "FAIR" INDICATES FEW OR NO CLOUDS BELOW 12000 FEET WITH NO
SIGNIFICANT WEATHER AND/OR OBSTRUCTIONS TO VISIBILITY.

COZ001>005-013-030-031-260400-
...NORTHWEST COLORADO...

CITY           SKY/WX    TMP DP  RH WIND       PRES   REMARKS
CRAIG          CLOUDY    28  22  78 E10       30.18R WCI  19
HAYDEN         CLOUDY    27  25  93 E9        30.17S WCI  17
MEEKER         CLOUDY    32  22  66 NE8       30.23S WCI  25
MOUNT WERNER   NOT AVBL
STEAMBOAT SPGS CLOUDY    27  26  97 CALM      30.17F
WALDEN         CLOUDY    30  23  74 SW23      30.04F WCI  17
$$

COZ006>008-011-260400-
...WEST CENTRAL VALLEYS...

CITY           SKY/WX    TMP DP  RH WIND       PRES   REMARKS
GRAND JUNCTION CLOUDY    33  22  63 NE5       30.30R WCI  29
MONTROSE       CLOUDY    33  17  51 CALM      30.31S
EAGLE          CLOUDY    30  23  74 W14       30.27F WCI  20
RIFLE          CLOUDY    28  23  81 CALM      30.31S
DELTA          CLOUDY    37  24  59 NE5       30.32S
NUCLA          CLOUDY    37  14  38 SE5       30.37R
$$

COZ017>023-064>068-260400-
...SOUTHWEST COLORADO...

CITY           SKY/WX    TMP DP  RH WIND       PRES   REMARKS
DURANGO        CLEAR     33  14  45 SW8       30.27R WCI  26
CORTEZ         CLEAR     25  10  53 E7        30.34F WCI  17
PAGOSA SPRINGS CLEAR     26   9  49 NE5       30.27S WCI  20
TELLURIDE      NOT AVBL
WOLF CREEK PAS PTCLDY    14   9  79 MISG      30.26R
$$

COZ009-010-012-014-032>034-037-058>063-260400-
...CENTRAL COLORADO...

CITY           SKY/WX    TMP DP  RH WIND       PRES   REMARKS
ASPEN          LGT SNOW  22  19  89 S3        30.26S FOG
BUENA VISTA    PTCLDY    31  19  59 W29G43    30.10F WCI  17
COPPER MTN     CLOUDY    21  18  86 W26G44    30.13F WCI   4
BERTHOUD PASS  NOT AVBL
COTTONWOOD PAS LGT SNOW  28  19  69 NW25G45   30.09S WCI  14
GUNNISON       CLOUDY    25  18  74 CALM      30.32S
KREMMLING      CLOUDY    28  21  74 W18G28    30.16R WCI  16
LEADVILLE      LGT SNOW  21  17  84 NW13      30.16S FOG     WCI   9
MONARCH PASS   CLOUDY    14  12  92 MISG      30.29R
SALIDA         PTCLDY    37  18  47 W33G44    30.19S
SUNLIGHT       MIX PCPN N/A N/A N/A CALM      30.23F
WILKERSON PASS PTCLDY    21  16  79 MISG      30.04F
$$

COZ069>075-260400-
...SAN LUIS VALLEY/SANGRE DE CRISTO MOUNTAINS...

CITY           SKY/WX    TMP DP  RH WIND       PRES   REMARKS
ALAMOSA        PTCLDY    19   7  59 SE3       30.20R
LA VETA PASS   PTCLDY    21  10  63 SW10G25   30.12R WCI  10
SAGUACHE       NOT AVBL
$$

COZ035-036-038>040-260400-
...NORTHERN COLORADO FRONT RANGE...

CITY           SKY/WX    TMP DP  RH WIND       PRES   REMARKS
DENVER INTL AP MOCLDY    43  21  41 W10       29.93R
DMNS CITY PARK   N/A     49  19  30 NW32G39   29.94R
AURORA         MOCLDY    45  20  37 NW18G26   29.94R
FRONT RANGE AP NOT AVBL
ERIE MUNI ARPT PTCLDY    47  19  32 NW15G23   29.94R
BOULDER MUN AP PTCLDY    46  21  36 NW18G33   29.93R
CENTENNIAL     MOCLDY    41  21  44 NW13      29.95R
BROOMFIELD     MOCLDY    45  19  36 W13G21    29.96R
FORT COLLINS   MOCLDY    48  23  37 NW22G36   29.95R
LONGMONT       MOCLDY    46  22  38 E10       29.93R
$$

COZ041-046-047-076>085-087-088-260400-
...PIKES PEAK/PALMER DIVIDE AND SOUTHERN FOOTHILLS...

CITY           SKY/WX    TMP DP  RH WIND       PRES   REMARKS
COLO. SPRINGS  MOCLDY    44  19  36 NW14G32   29.96R
A. F. ACADEMY  MOCLDY    42  17  35 NW16      29.95S
ELLICOTT       NOT AVBL
FALCON         NOT AVBL
FORT CARSON    MOCLDY    40  17  40 S5        29.94R
LIMON          CLOUDY    31  17  56 CALM      29.94R
MONUMENT HILL  MOCLDY    28  19  69 W6        29.96S WCI  22
TRINIDAD       PTCLDY    42  22  44 W9        30.00S
$$

COZ042>045-048>051-090-091-260400-
...NORTHEAST COLORADO...

CITY           SKY/WX    TMP DP  RH WIND       PRES   REMARKS
GREELEY ARPT   PTCLDY    36  27  69 NE24G32   29.98R
AKRON          CLOUDY    33  31  92 N15       29.98R WCI  23
BURLINGTON     CLOUDY    42  23  46 N12       29.95R
WRAY           LGT RAIN  39  33  78 N12       29.96R
STERLING       CLOUDY    37  34  87 N15       29.99R
HOLYOKE        LGT RAIN  37  32  81 N24G32    29.97R
FORT MORGAN    CLOUDY    33  30  88 N20G28    29.99R WCI  22
$$

COZ086-089-092>099-260400-
...SOUTHEAST COLORADO...

CITY           SKY/WX    TMP DP  RH WIND       PRES   REMARKS
PUEBLO         MOCLDY    49  22  34 NW14G23   29.95R
LA JUNTA       MOCLDY    36  22  56 W7        29.94R
LAMAR          MOCLDY    31  18  58 SW8       29.91S WCI  23
SPRINGFIELD      N/A     28  17  63 W7        29.93F WCI  21
$$



USA.gov is the U.S. government's official web portal to all federal, state and local government web resources and services.